EW2353 Weather Reports


Display with metric or nautical units.
time (UTC)temp
F
wind
direction
speed
MPH
gust
MPH
rain 1hr
in
rain 24hr
in
rain mn
in
humidity
%
barometer
mb
20260901034336 71 261 0.0 0.0 0.00 0.00 0.00 96 1018.6
20260901033828 71 261 0.0 0.0 0.00 0.00 0.00 96 1018.6
20260901033325 71 261 0.0 0.0 0.00 0.00 0.00 96 1018.6
20260901032817 71 261 0.0 0.0 0.00 0.00 0.00 96 1018.6
20260901032331 72 261 0.0 0.0 0.00 0.00 0.00 96 1018.6
20260901031822 72 261 0.0 0.0 0.00 0.00 0.00 96 1018.6
20260901031315 72 261 0.0 0.0 0.00 0.00 0.00 96 1018.7
20260901030828 72 261 0.0 0.0 0.00 0.00 0.00 96 1018.6
20260901030321 72 261 0.0 0.0 0.00 0.00 0.00 96 1018.6
20260901025813 72 261 0.0 0.0 0.00 0.00 0.00 96 1018.6
20260901025310 72 261 0.0 0.0 0.00 0.00 0.00 95 1018.7
20260901024823 72 261 0.0 0.0 0.00 0.00 0.00 95 1018.7
20260901024336 73 261 0.0 0.0 0.00 0.00 0.00 95 1018.7
20260901023825 73 261 0.0 0.0 0.00 0.00 0.00 95 1018.7
20260901023338 73 261 0.0 0.0 0.00 0.00 0.00 95 1018.8
20260901022810 73 261 0.0 0.0 0.00 0.00 0.00 95 1018.8
20260901022323 73 261 0.0 0.0 0.00 0.00 0.00 95 1018.8
20260901021816 73 261 0.0 0.0 0.00 0.00 0.00 95 1018.8
20260901021349 73 261 0.0 0.0 0.00 0.00 0.00 94 1018.7
20260901020820 73 261 0.0 0.0 0.00 0.00 0.00 94 1018.7
20260901020317 74 261 0.0 0.0 0.00 0.00 0.00 94 1018.6
20260901015829 74 261 0.0 0.0 0.00 0.00 0.00 94 1018.6
20260901015322 74 261 0.0 0.0 0.00 0.00 0.00 93 1018.5
20260901014815 74 261 0.0 0.0 0.00 0.00 0.00 94 1018.5
20260901014327 74 261 0.0 0.0 0.00 0.00 0.00 94 1018.5
20260901013820 74 261 0.0 0.0 0.00 0.00 0.00 94 1018.5
20260901013312 74 261 0.0 0.0 0.00 0.00 0.00 93 1018.5
20260901012824 75 261 0.0 0.0 0.00 0.00 0.00 93 1018.4
20260901012321 75 261 0.0 0.0 0.00 0.00 0.00 93 1018.3
20260901011814 75 261 0.0 0.0 0.00 0.00 0.00 92 1018.3
20260901011327 76 261 0.0 0.0 0.00 0.00 0.00 92 1018.3
20260901010820 76 261 0.0 0.0 0.00 0.00 0.00 91 1018.3
20260901010312 76 261 0.0 0.0 0.00 0.00 0.00 90 1018.2
20260901005825 76 261 0.0 0.0 0.00 0.00 0.00 89 1018.2
20260901005315 77 261 0.0 0.0 0.00 0.00 0.00 89 1018.1
20260901004828 77 261 0.0 0.0 0.00 0.00 0.00 89 1018.1
20260901004325 77 261 0.0 0.0 0.00 0.00 0.00 88 1017.9
20260901003818 78 261 0.0 0.0 0.00 0.00 0.00 88 1017.9
20260901003311 78 261 0.0 0.0 0.00 0.00 0.00 87 1017.9
20260901002843 79 261 0.0 0.0 0.00 0.00 0.00 86 1017.7
20260901002316 79 261 0.0 0.0 0.00 0.00 0.00 85 1017.6
20260901001828 80 261 0.0 0.0 0.00 0.00 0.00 84 1017.6
20260901001321 81 261 0.0 0.0 0.00 0.00 0.00 83 1017.5
20260901000814 81 261 0.0 0.0 0.00 0.00 0.00 82 1017.5
20260901000314 82 261 0.0 1.0 0.00 0.00 0.00 81 1017.5
20260831235823 82 261 0.0 1.0 0.00 0.00 0.00 80 1017.4
20260831235315 82 261 0.0 1.0 0.00 0.00 0.00 80 1017.4
20260831234828 83 261 0.0 1.0 0.00 0.00 0.00 80 1017.3
20260831234321 83 261 0.0 1.0 0.00 0.00 0.00 79 1017.4
20260831233813 83 261 0.0 2.0 0.00 0.00 0.00 78 1017.4
20260831233325 84 251 0.0 3.0 0.00 0.00 0.00 77 1017.4
20260831232837 84 249 1.0 3.0 0.00 0.00 0.00 77 1017.3
20260831232329 85 248 1.0 2.0 0.00 0.00 0.00 75 1017.3
20260831231842 85 259 0.0 4.0 0.00 0.00 0.00 75 1017.3
20260831231338 86 243 2.0 4.0 0.00 0.00 0.00 73 1017.2
20260831230830 86 227 1.0 4.0 0.00 0.00 0.00 73 1017.2
20260831230322 86 211 0.0 4.0 0.00 0.00 0.00 72 1017.2
20260831225815 87 222 2.0 5.0 0.00 0.00 0.00 71 1017.2
20260831225328 88 283 2.0 5.0 0.00 0.00 0.00 70 1017.2
20260831224840 88 241 2.0 7.0 0.00 0.00 0.00 70 1017.2
20260831224312 88 222 1.0 8.0 0.00 0.00 0.00 69 1017.2
20260831223825 88 231 3.0 8.0 0.00 0.00 0.00 68 1017.2
20260831223318 89 225 3.0 6.0 0.00 0.00 0.00 67 1017.3
20260831222835 89 240 1.0 9.0 0.00 0.00 0.00 69 1017.3
20260831222327 89 163 2.0 7.0 0.00 0.00 0.00 68 1017.4
20260831221840 89 225 2.0 6.0 0.00 0.00 0.00 68 1017.4
20260831221312 90 219 2.0 7.0 0.00 0.00 0.00 67 1017.5
20260831220824 89 232 2.0 8.0 0.00 0.00 0.00 67 1017.6
20260831220337 90 252 2.0 8.0 0.00 0.00 0.00 67 1017.7
20260831215829 90 226 3.0 8.0 0.00 0.00 0.00 65 1017.7
20260831215322 90 205 2.0 5.0 0.00 0.00 0.00 67 1017.9
20260831214815 90 198 1.0 6.0 0.00 0.00 0.00 66 1017.9
20260831214312 90 242 2.0 5.0 0.00 0.00 0.00 67 1017.9
20260831213843 90 233 1.0 9.0 0.00 0.00 0.00 68 1018.0
20260831213315 90 242 4.0 9.0 0.00 0.00 0.00 65 1018.0
20260831212828 90 262 4.0 9.0 0.00 0.00 0.00 63 1018.0
20260831212321 90 246 3.0 9.0 0.00 0.00 0.00 64 1018.1
20260831211814 91 214 2.0 5.0 0.00 0.00 0.00 66 1018.1
20260831211347 91 234 1.0 5.0 0.00 0.00 0.00 65 1018.1
20260831210839 90 252 1.0 6.0 0.00 0.00 0.00 64 1018.2
20260831210311 90 256 3.0 6.0 0.00 0.00 0.00 67 1018.3
20260831205843 90 236 2.0 6.0 0.00 0.00 0.00 66 1018.3
20260831205335 90 250 3.0 7.0 0.00 0.00 0.00 63 1018.4
20260831204810 91 243 3.0 6.0 0.00 0.00 0.00 63 1018.4
20260831204323 91 221 2.0 7.0 0.00 0.00 0.00 64 1018.4
20260831203816 91 250 3.0 7.0 0.00 0.00 0.00 63 1018.5
20260831203329 90 226 2.0 10.0 0.00 0.00 0.00 63 1018.4
20260831202842 90 262 4.0 10.0 0.00 0.00 0.00 62 1018.5
20260831202313 91 282 3.0 6.0 0.00 0.00 0.00 64 1018.6
20260831201826 91 221 3.0 7.0 0.00 0.00 0.00 64 1018.6
20260831201319 91 247 2.0 7.0 0.00 0.00 0.00 65 1018.7
20260831200812 91 279 2.0 6.0 0.00 0.00 0.00 63 1018.8
20260831200329 91 259 2.0 8.0 0.00 0.00 0.00 63 1018.8
20260831195822 91 284 3.0 8.0 0.00 0.00 0.00 60 1018.9
20260831195314 91 255 2.0 8.0 0.00 0.00 0.00 61 1018.9
20260831194827 91 282 4.0 8.0 0.00 0.00 0.00 62 1019.0
20260831194320 91 274 2.0 7.0 0.00 0.00 0.00 64 1019.2
20260831193833 91 234 2.0 7.0 0.00 0.00 0.00 63 1019.3
20260831193325 91 260 3.0 7.0 0.00 0.00 0.00 60 1019.3
20260831192818 91 289 2.0 7.0 0.00 0.00 0.00 64 1019.3
20260831192314 90 263 2.0 7.0 0.00 0.00 0.00 63 1019.4
20260831191828 90 281 4.0 7.0 0.00 0.00 0.00 62 1019.5
20260831191320 91 256 5.0 7.0 0.00 0.00 0.00 61 1019.4
20260831190813 91 265 2.0 8.0 0.00 0.00 0.00 61 1019.5
20260831190325 90 276 2.0 10.0 0.00 0.00 0.00 63 1019.5
20260831185839 90 241 6.0 12.0 0.00 0.00 0.00 66 1019.6
20260831185310 91 264 6.0 12.0 0.00 0.00 0.00 65 1019.5
20260831184823 90 223 2.0 8.0 0.00 0.00 0.00 65 1019.6
20260831184315 90 277 4.0 11.0 0.00 0.00 0.00 65 1019.6
20260831183812 90 262 6.0 9.0 0.00 0.00 0.00 66 1019.7
20260831183326 90 256 5.0 9.0 0.00 0.00 0.00 65 1019.7
20260831182818 89 282 3.0 11.0 0.00 0.00 0.00 67 1019.7
20260831182311 89 233 6.0 11.0 0.00 0.00 0.00 65 1019.8
20260831181824 89 240 5.0 10.0 0.00 0.00 0.00 66 1019.9
20260831181317 89 258 7.0 10.0 0.00 0.00 0.00 68 1019.9
20260831180809 89 256 5.0 10.0 0.00 0.00 0.00 67 1019.9
20260831180322 89 261 6.0 10.0 0.00 0.00 0.00 66 1019.9
20260831175819 89 244 5.0 12.0 0.00 0.00 0.00 68 1019.9
20260831175312 88 226 4.0 10.0 0.00 0.00 0.00 71 1020.0
20260831174825 88 262 2.0 8.0 0.00 0.00 0.00 71 1019.9
20260831174318 88 246 3.0 10.0 0.00 0.00 0.00 71 1019.9
20260831173831 88 264 5.0 11.0 0.00 0.00 0.00 67 1020.0
20260831173343 88 268 4.0 11.0 0.00 0.00 0.00 69 1020.1
20260831172814 89 243 6.0 11.0 0.00 0.00 0.00 70 1020.0
20260831172327 89 252 3.0 10.0 0.00 0.00 0.00 71 1020.1
20260831171840 88 281 3.0 10.0 0.00 0.00 0.00 72 1020.1
20260831171315 88 281 6.0 11.0 0.00 0.00 0.00 71 1020.2
20260831170827 88 302 6.0 12.0 0.00 0.00 0.00 70 1020.2
20260831170319 88 294 5.0 12.0 0.00 0.00 0.00 72 1020.2
20260831165813 87 246 5.0 9.0 0.00 0.00 0.00 73 1020.3
20260831165324 88 245 4.0 8.0 0.00 0.00 0.00 73 1020.3
20260831164817 87 250 6.0 8.0 0.00 0.00 0.00 74 1020.4
20260831164310 87 233 4.0 10.0 0.00 0.00 0.00 77 1020.3
20260831163823 87 274 6.0 10.0 0.00 0.00 0.00 74 1020.3
20260831163319 87 231 4.0 9.0 0.00 0.00 0.00 74 1020.4
20260831162812 86 236 5.0 11.0 0.00 0.00 0.00 74 1020.5
20260831162325 87 224 6.0 11.0 0.00 0.00 0.00 75 1020.5
20260831161817 86 271 5.0 8.0 0.00 0.00 0.00 76 1020.5
20260831161310 86 237 4.0 7.0 0.00 0.00 0.00 76 1020.4
20260831160823 85 240 4.0 6.0 0.00 0.00 0.00 77 1020.5
20260831160336 85 156 2.0 7.0 0.00 0.00 0.00 78 1020.5
20260831155827 85 279 4.0 9.0 0.00 0.00 0.00 77 1020.5
20260831155316 85 245 4.0 9.0 0.00 0.00 0.00 76 1020.5
20260831154812 85 243 2.0 7.0 0.00 0.00 0.00 79 1020.4
20260831154346 85 251 4.0 10.0 0.00 0.00 0.00 76 1020.3
20260831153817 85 200 6.0 10.0 0.00 0.00 0.00 78 1020.3
20260831153330 85 242 3.0 6.0 0.00 0.00 0.00 80 1020.3
20260831152822 84 249 2.0 8.0 0.00 0.00 0.00 80 1020.3
20260831152314 85 214 3.0 8.0 0.00 0.00 0.00 80 1020.3
20260831151828 84 231 2.0 6.0 0.00 0.00 0.00 81 1020.3
20260831151340 84 207 3.0 7.0 0.00 0.00 0.00 80 1020.3
20260831150812 83 249 4.0 7.0 0.00 0.00 0.00 84 1020.3
20260831150329 82 255 4.0 6.0 0.00 0.00 0.00 86 1020.3
20260831145822 82 243 3.0 5.0 0.00 0.00 0.00 84 1020.3
20260831145315 82 211 2.0 8.0 0.00 0.00 0.00 83 1020.3
20260831144828 82 215 4.0 8.0 0.00 0.00 0.00 83 1020.3
20260831144321 81 179 3.0 5.0 0.00 0.00 0.00 85 1020.2
20260831143813 81 232 2.0 5.0 0.00 0.00 0.00 88 1020.3
20260831143324 80 217 2.0 4.0 0.00 0.00 0.00 88 1020.2
20260831142817 79 219 2.0 5.0 0.00 0.00 0.00 88 1020.1
20260831142314 79 211 3.0 6.0 0.00 0.00 0.00 88 1020.1
20260831141827 78 219 3.0 6.0 0.00 0.00 0.00 90 1019.9
20260831141320 78 209 2.0 4.0 0.00 0.00 0.00 93 1020.0
20260831140812 77 211 2.0 4.0 0.00 0.00 0.00 92 1020.0
20260831140324 77 212 2.0 3.0 0.00 0.00 0.00 92 1020.0
20260831135837 76 215 1.0 3.0 0.00 0.00 0.00 92 1020.0
20260831135329 76 214 1.0 2.0 0.00 0.00 0.00 93 1020.0
20260831134822 76 221 0.0 1.0 0.00 0.00 0.00 94 1020.1
20260831134332 75 221 0.0 2.0 0.00 0.00 0.00 94 1020.2
20260831133844 75 145 0.0 3.0 0.00 0.00 0.00 94 1020.2
20260831133340 75 219 0.0 3.0 0.00 0.00 0.00 94 1020.1
20260831132811 75 213 0.0 1.0 0.00 0.00 0.00 95 1020.1
20260831132344 74 214 0.0 1.0 0.00 0.00 0.00 95 1020.0
20260831131835 74 214 0.0 1.0 0.00 0.00 0.00 95 1020.0
20260831131327 74 214 0.0 1.0 0.00 0.00 0.00 95 1020.1
20260831130840 74 214 0.0 1.0 0.00 0.00 0.00 95 1020.0
20260831130312 74 214 0.0 1.0 0.00 0.00 0.00 95 1019.9
20260831125824 73 214 0.0 1.0 0.00 0.00 0.00 95 1019.9
20260831125338 73 214 0.0 1.0 0.00 0.00 0.00 95 1019.8
20260831124849 73 212 0.0 1.0 0.00 0.00 0.00 96 1019.7
20260831124321 72 217 0.0 1.0 0.00 0.00 0.00 97 1019.7
20260831123817 72 218 0.0 1.0 0.00 0.00 0.00 97 1019.7
20260831123328 71 203 0.0 0.0 0.00 0.00 0.00 97 1019.7
20260831122820 71 198 0.0 0.0 0.00 0.00 0.00 97 1019.7
20260831122314 71 198 0.0 0.0 0.00 0.00 0.00 97 1019.7
20260831121826 70 198 0.0 0.0 0.00 0.00 0.00 97 1019.7
20260831121319 70 198 0.0 0.0 0.00 0.00 0.00 97 1019.7
20260831120812 70 198 0.0 0.0 0.00 0.00 0.00 97 1019.6
20260831120325 69 198 0.0 0.0 0.00 0.00 0.00 97 1019.6
20260831115822 69 198 0.0 0.0 0.00 0.00 0.00 97 1019.6
20260831115315 69 198 0.0 0.0 0.00 0.00 0.00 97 1019.5
20260831114827 69 198 0.0 0.0 0.00 0.00 0.00 97 1019.5
20260831114320 69 198 0.0 0.0 0.00 0.00 0.00 97 1019.6
20260831113812 68 198 0.0 0.0 0.00 0.00 0.00 97 1019.6
20260831113325 68 198 0.0 0.0 0.00 0.00 0.00 97 1019.6
20260831112817 68 198 0.0 0.0 0.00 0.00 0.00 97 1019.5
20260831112310 68 198 0.0 0.0 0.00 0.00 0.00 97 1019.5
20260831111826 68 198 0.0 0.0 0.00 0.00 0.00 97 1019.5
20260831111319 68 198 0.0 0.0 0.00 0.00 0.00 97 1019.4
20260831110812 68 198 0.0 0.0 0.00 0.00 0.00 97 1019.3
20260831110325 68 198 0.0 0.0 0.00 0.00 0.00 97 1019.3
20260831105815 68 198 0.0 0.0 0.00 0.00 0.00 97 1019.2
20260831105328 68 198 0.0 0.0 0.00 0.00 0.00 97 1019.1
20260831104821 68 198 0.0 0.0 0.00 0.00 0.00 97 1019.0
20260831104313 68 198 0.0 0.0 0.00 0.00 0.00 97 1019.0
20260831103810 69 198 0.0 0.0 0.00 0.00 0.00 97 1019.0
20260831103322 69 198 0.0 0.0 0.00 0.00 0.00 97 1019.0
20260831102815 69 198 0.0 0.0 0.00 0.00 0.00 97 1019.0
20260831102328 69 198 0.0 0.0 0.00 0.00 0.00 96 1019.0
20260831101821 69 198 0.0 0.0 0.00 0.00 0.00 96 1018.9
20260831101314 69 198 0.0 0.0 0.00 0.00 0.00 96 1018.8
20260831100826 69 198 0.0 0.0 0.00 0.00 0.00 96 1018.9
20260831100320 70 198 0.0 0.0 0.00 0.00 0.00 96 1018.8
20260831095816 70 198 0.0 0.0 0.00 0.00 0.00 96 1018.9
20260831095309 70 198 0.0 0.0 0.00 0.00 0.00 96 1018.8
20260831094822 70 198 0.0 0.0 0.00 0.00 0.00 96 1018.9
20260831094335 70 198 0.0 0.0 0.00 0.00 0.00 97 1018.8
20260831093826 70 198 0.0 0.0 0.00 0.00 0.00 97 1018.8
20260831093318 70 198 0.0 0.0 0.00 0.00 0.00 97 1018.9
20260831092811 70 198 0.0 0.0 0.00 0.00 0.00 97 1018.8
20260831092324 70 198 0.0 0.0 0.00 0.00 0.00 97 1018.8
20260831091820 70 198 0.0 0.0 0.00 0.00 0.00 97 1018.8
20260831091313 70 198 0.0 0.0 0.00 0.00 0.00 96 1018.7
20260831090826 70 198 0.0 0.0 0.00 0.00 0.00 96 1018.7
20260831090319 70 198 0.0 0.0 0.00 0.00 0.00 96 1018.7
20260831085812 70 198 0.0 0.0 0.00 0.00 0.00 96 1018.8
20260831085324 70 198 0.0 0.0 0.00 0.00 0.00 96 1018.8
20260831084817 70 198 0.0 0.0 0.00 0.00 0.00 96 1018.8
20260831084331 70 198 0.0 0.0 0.00 0.00 0.00 96 1018.7
20260831083822 70 198 0.0 0.0 0.00 0.00 0.00 96 1018.7
20260831083318 70 198 0.0 0.0 0.00 0.00 0.00 96 1018.6
20260831082811 70 198 0.0 0.0 0.00 0.00 0.00 96 1018.6
20260831082324 70 198 0.0 0.0 0.00 0.00 0.00 96 1018.5
20260831081816 70 198 0.0 0.0 0.00 0.00 0.00 96 1018.5
20260831081350 70 198 0.0 0.0 0.00 0.00 0.00 96 1018.4
20260831080821 70 198 0.0 0.0 0.00 0.00 0.00 96 1018.3
20260831080314 70 198 0.0 0.0 0.00 0.00 0.00 96 1018.1
20260831075825 70 198 0.0 0.0 0.00 0.00 0.00 96 1018.1
20260831075323 70 198 0.0 0.0 0.00 0.00 0.00 96 1018.0
20260831074836 70 198 0.0 0.0 0.00 0.00 0.00 96 1017.9
20260831074327 70 198 0.0 0.0 0.00 0.00 0.00 96 1018.0
20260831073820 69 198 0.0 0.0 0.00 0.00 0.00 95 1018.0
20260831073313 69 198 0.0 0.0 0.00 0.00 0.00 95 1018.1
20260831072826 69 198 0.0 0.0 0.00 0.00 0.00 95 1018.3
20260831072318 69 198 0.0 0.0 0.00 0.00 0.00 94 1018.3
20260831071811 70 198 0.0 0.0 0.00 0.00 0.00 94 1018.4
20260831071324 70 198 0.0 0.0 0.00 0.00 0.00 94 1018.4
20260831070820 70 198 0.0 0.0 0.00 0.00 0.00 95 1018.4
20260831070312 70 198 0.0 0.0 0.00 0.00 0.00 95 1018.3
20260831065825 70 198 0.0 0.0 0.00 0.00 0.00 95 1018.5
20260831065318 70 198 0.0 0.0 0.00 0.00 0.00 96 1018.5
20260831064811 70 198 0.0 0.0 0.00 0.00 0.00 96 1018.7
20260831064324 70 198 0.0 0.0 0.00 0.00 0.00 96 1018.8
20260831063816 70 198 0.0 0.0 0.00 0.00 0.00 96 1018.7
20260831063313 70 198 0.0 0.0 0.00 0.00 0.00 96 1018.8
20260831062826 70 198 0.0 0.0 0.00 0.00 0.00 96 1018.9
20260831062319 70 198 0.0 0.0 0.00 0.00 0.00 96 1019.1
20260831061831 70 198 0.0 0.0 0.00 0.00 0.00 96 1019.1
20260831061323 70 198 0.0 0.0 0.00 0.00 0.00 96 1019.0
20260831060836 70 198 0.0 0.0 0.00 0.00 0.00 96 1019.0
20260831060327 70 198 0.0 0.0 0.00 0.00 0.00 96 1019.1
20260831055840 70 198 0.0 0.0 0.00 0.00 0.00 96 1019.1
20260831055312 69 198 0.0 0.0 0.00 0.00 0.00 96 1019.2
20260831054825 69 198 0.0 0.0 0.00 0.00 0.00 96 1019.2
20260831054322 69 198 0.0 0.0 0.00 0.00 0.00 96 1019.2
20260831053835 69 198 0.0 0.0 0.00 0.00 0.00 96 1019.2
20260831053326 69 198 0.0 0.0 0.00 0.00 0.00 96 1019.2
20260831052840 69 198 0.0 0.0 0.00 0.00 0.00 96 1019.2
20260831052311 69 198 0.0 0.0 0.00 0.00 0.00 96 1019.2
20260831051824 68 198 0.0 0.0 0.00 0.00 0.00 96 1019.2
20260831051317 68 198 0.0 0.0 0.00 0.00 0.00 96 1019.3
20260831050810 68 198 0.0 0.0 0.00 0.00 0.00 96 1019.2
20260831050323 68 198 0.0 0.0 0.00 0.00 0.00 96 1019.1
20260831045819 68 198 0.0 0.0 0.00 0.00 0.00 96 1019.1
20260831045312 68 198 0.0 0.0 0.00 0.00 0.00 96 1019.1
20260831044844 68 198 0.0 0.0 0.00 0.00 0.00 95 1019.1
20260831044336 68 198 0.0 0.0 0.00 0.00 0.00 95 1019.1
20260831043828 68 198 0.0 0.0 0.00 0.00 0.00 95 1019.0
20260831043341 69 198 0.0 0.0 0.00 0.00 0.00 95 1019.1
20260831042813 69 198 0.0 0.0 0.00 0.00 0.00 95 1019.1
20260831042325 69 198 0.0 0.0 0.00 0.00 0.00 95 1019.2
20260831041818 69 198 0.0 0.0 0.00 0.00 0.00 95 1019.2
20260831041311 69 198 0.0 0.0 0.00 0.00 0.00 95 1019.2
20260831040828 69 198 0.0 0.0 0.00 0.00 0.00 96 1019.3
20260831040321 69 198 0.0 0.0 0.00 0.00 0.00 96 1019.2
20260831035813 69 198 0.0 0.0 0.00 0.00 0.00 96 1019.2
20260831035327 69 198 0.0 0.0 0.00 0.00 0.00 96 1019.2
20260831034819 69 198 0.0 0.0 0.00 0.00 0.00 96 1019.2